Regional Weather Roundup
Issued by NWS Sioux Falls, SD

Home | Current Version | Previous Version | Text Only | Print | Product List | Glossary On
Versions: 1 2 3 4 5 6 7 8 9 10 11 12 13 14 15 16 17 18 19 20 21 22 23 24 25 26 27 28 29 30 31 32 33 34 35 36 37 38 39 40 41 42 43 44 45 46 47 48 49 50
000
ASUS43 KFSD 202302
RWRFSD

WEATHER ROUNDUP FOR SE SOUTH DAKOTA/SW MINNESOTA/NW IOWA
NATIONAL WEATHER SERVICE SIOUX FALLS SD
600 PM CDT MON APR 20 2015

NOTE: "FAIR" INDICATES FEW OR NO CLOUDS BELOW 12,000 FEET WITH NO
SIGNIFICANT WEATHER AND OR OBSTRUCTIONS TO VISIBILITY.


SDZ038>040-050-052>070-210000-
SOUTHEAST SOUTH DAKOTA

CITY           SKY/WX    TMP DP  RH WIND       PRES   REMARKS
BROOKINGS      MOSUNNY   46  25  42 NW29G35   29.65F
CHAMBERLAIN    NOT AVBL
HURON          SUNNY     54   4  13 NW32G41   29.69S
MADISON        FAIR      48  23  37 NW24G40   29.67S
MITCHELL       SUNNY     56   0  10 NW31G46   29.72S
SIOUX FALLS    MOSUNNY   53  16  23 NW26G41   29.66S
WINNER         FAIR      55  12  18 NW28G38   29.78S
YANKTON        SUNNY    N/A N/A N/A NW31G38   29.71R
$$

MNZ071-072-080-081-089-090-097-098-210000-
SOUTHWEST MINNESOTA

CITY           SKY/WX    TMP DP  RH WIND       PRES   REMARKS
FAIRMONT       CLOUDY    43  28  56 NW20G25   29.63S
JACKSON        CLOUDY    45  28  53 NW21G30   29.64S
LUVERNE        MOSUNNY   52  19  28 NW24G37   29.65S
MARSHALL       CLOUDY    43  23  45 NW24G32   29.65R
MONTEVIDEO     CLOUDY    43  32  65 N17G28    29.63S
PIPESTONE      MOSUNNY   46  25  42 N28G45    29.65R
REDWOOD FALLS  CLOUDY    42  29  59 NW24G33   29.61S
WORTHINGTON    PTSUNNY   46  27  46 NW23G33   29.64S
$$

IAZ001>003-012>014-020>022-031-032-NEZ013-014-SDZ071-210000-
NORTHWEST IOWA

CITY           SKY/WX    TMP DP  RH WIND       PRES   REMARKS
DENISON        SUNNY     54  10  17 NW25G36   29.68S
ESTHERVILLE    PTSUNNY   46  29  51 NW23G31   29.64S
SIOUX CITY     SUNNY     57   9  14 NW32G43   29.69S
SPENCER        PTSUNNY   51  26  37 NW20G36   29.65R
$$

ABBREVIATIONS USED IN REMARKS
   TC - TEMPERATURE IN CELSIUS
  WCI - WIND CHILL INDEX
   HX - HEAT INDEX
  VSB - VISIBILITY



USA.gov is the U.S. government's official web portal to all federal, state and local government web resources and services.